www.pogodaiklimat.ru

Погода и климат >> Архив погоды >> Россия >> Рязанская область >> Рязань


АРХИВ ПОГОДЫ в Рязани

Время (UTC), дата Ветер
(напр.,м/с)
 
Видим.   Явления Облачность Т
(С)
Тd
(С)
f
(%)
Тe
(С)
Тes
(С)
Комфортность P
(гПа)
Po
(гПа)
Тmin
(С)
Tmax
(С)
R
(мм)
R24
(мм)
S
(см)
15 9.10 штиль 0 20 км 4/0
[Ci fib]
+4.5 +3.0 90 +3 +3 прохладно 1027.6 1008.0 +10.0
18 9.10 штиль 0 10 км 10/0
[As trans]
+3.9 +3.3 96 +3 +3 по сезону 1027.5 1007.9
21 9.10 штиль 0 10 км 6/0
[As trans]
+1.5 +1.2 98 0 0 прохладно 1028.5 1008.7
00 10.10 Ю 1 10 км ясно +0.8 +0.5 98 -1 -1 прохладно 1027.6 1007.7
03 10.10 Ю 1 20 км ясно +2.0 +1.1 94 0 0 прохладно 1027.0 1007.3 +0.6
06 10.10 Ю 2 20 км 9/0
[Ci fib]
+6.0 +3.2 82 +4 +5 по сезону 1025.7 1006.3
09 10.10 ЮЗ 3
{10}
20 км 8/0
[Ci fib]
+13.0 +3.2 51 +12 +15 тепло 1023.8 1005.0
12 10.10 ЮЗ 4
{10}
20 км 10/3 600 м
[Sc Ac trans]
+14.4 +0.3 38 +13 +14 тепло 1021.5 1002.7
15 10.10 ЮЗ 2 20 км 8/0
[Ac trans]
+12.3 +2.8 52 +12 +12 тепло 1020.5 1001.6 +14.8
18 10.10 З 2 20 км 10/0
[Ac trans]
+11.1 +2.2 54 +10 +10 тепло 1021.3 1002.3
21 10.10 З 2 20 км 10/0
[Ac trans]
+10.7 +4.1 64 +10 +10 тепло 1022.5 1003.4
00 11.10 З 1 20 км 1/0
[Ac trans]
+9.0 +6.8 86 +8 +8 тепло 1023.4 1004.2
03 11.10 СЗ 1 10 км 4/0
[Ac trans]
+7.2 +6.8 97 +6 +6 по сезону 1025.5 1006.2 +7.0
06 11.10 С 2 20 км 1/1 600 м
[Cu hum]
+10.3 +7.6 83 +9 +10 тепло 1027.2 1008.1 +7.0
09 11.10 С 3 20 км ясно +13.0 +4.0 54 +12 +16 тепло 1028.2 1009.2
12 11.10 С 3 20 км ясно +14.1 -0.8 36 +13 +15 тепло 1027.8 1008.9
15 11.10 С 1 20 км ясно +10.4 +0.3 50 +10 +10 тепло 1029.2 1010.0 +14.3
18 11.10 С 2 20 км ясно +8.4 +0.5 58 +7 +7 по сезону 1031.0 1011.6
21 11.10 штиль 0 10 км ясно +2.0 +1.5 96 +1 +1 по сезону 1033.0 1013.1
00 12.10 штиль 0 10 км ясно +0.6 +0.3 98 -1 -1 прохладно 1034.0 1014.0
03 12.10 штиль 0 10 км ясно -0.3 -0.6 98 -2 -2 прохладно 1035.1 1015.0 -0.3
06 12.10 З 1 20 км ясно +4.7 +3.8 94 +3 +5 по сезону 1036.1 1016.4 -0.5
09 12.10 СЗ 3 20 км 3/0
[Ac As]
+12.1 +2.2 51 +11 +14 тепло 1035.3 1016.1
12 12.10 З 2 20 км 3/0
[Ac trans]
+14.5 +0.4 38 +14 +16 тепло 1033.6 1014.5
15 12.10 З 1 20 км ясно +10.8 +1.3 52 +11 +11 тепло 1031.6 1012.4 +14.8
18 12.10 З 1 20 км ясно +7.9 +2.5 69 +7 +7 по сезону 1030.9 1011.5
21 12.10 З 1 20 км ясно +6.9 +2.6 74 +6 +6 по сезону 1030.4 1010.9
00 13.10 З 2 20 км ясно +7.5 +5.3 86 +5 +5 по сезону 1029.4 1010.0
03 13.10 З 2 20 км ясно +7.0 +5.8 92 +5 +5 по сезону 1029.3 1009.9 +6.0
06 13.10 З 3 20 км 9/0
[Ac trans Ci fib]
+8.8 +7.1 89 +6 +7 по сезону 1029.0 1009.7
09 13.10 З 2 20 км 10/0
[As trans]
+12.3 +8.9 80 +11 +13 тепло 1028.5 1009.5
12 13.10 З 3 20 км 8/0
[As op]
+13.8 +9.4 75 +13 +13 тепло 1027.3 1008.4
15 13.10 З 2 20 км 3/0
[Ac trans]
+11.2 +8.8 85 +10 +10 тепло 1027.1 1008.0 +14.7
18 13.10 З 1 10 км ясно +8.8 +7.8 93 +8 +8 тепло 1026.7 1007.5
21 13.10 штиль 0 4000 м дымка ясно +6.1 +5.7 97 +5 +5 по сезону 1026.6 1007.2
00 14.10 СЗ 1 4000 м дымка ясно +6.6 +6.3 98 +5 +5 по сезону 1027.0 1007.5
03 14.10 штиль 0 4000 м дымка 3/0
[Ci fib]
+6.3 +6.0 98 +5 +5 по сезону 1026.4 1007.0 +5.2
06 14.10 З 1 10 км 8/0
[Ac As Ci fib]
+7.5 +7.2 98 +6 +7 по сезону 1026.7 1007.4
09 14.10 СЗ 2 20 км 9/0
[Cs]
+15.1 +10.6 74 +15 +18 тепло 1025.7 1006.9
12 14.10 СЗ 3 20 км 6/0
[Ci fib]
+18.2 +10.4 60 +19 +20 тепло 1024.5 1005.9
15 14.10 СЗ 1 20 км 9/0
[Ac trans Ci fib]
+15.7 +10.8 73 +16 +16 тепло 1024.8 1006.1 +18.2
18 14.10 СЗ 1 20 км ясно +12.4 +10.8 90 +12 +12 тепло 1025.1 1006.2
21 14.10 СЗ 1 10 км ясно +10.8 +10.0 95 +10 +10 тепло 1025.6 1006.5
00 15.10 СЗ 2 10 км ясно +10.9 +10.0 94 +9 +9 тепло 1025.9 1006.8
03 15.10 СЗ 2 10 км ясно +10.3 +9.7 96 +9 +9 тепло 1026.3 1007.2 +10.3
06 15.10 З 2 20 км ясно +11.8 +10.5 92 +11 +12 тепло 1026.8 1007.8 +8.9
09 15.10 З 2 20 км ясно +18.0 +10.6 62 +19 +22 тепло 1026.8 1008.2
12 15.10 СЗ 2 20 км ясно +20.1 +6.4 41 +22 +23 комфорт 1026.3 1007.8
15 15.10 штиль 0 20 км ясно +11.9 +7.2 73 +11 +11 тепло 1027.1 1008.0 +20.3
18 15.10 СЗ 1 10 км ясно +9.8 +8.6 92 +9 +9 тепло 1027.5 1008.3
21 15.10 штиль 0 10 км ясно +6.6 +6.3 98 +5 +5 по сезону 1027.5 1008.1
00 16.10 штиль 0 4000 м дымка ясно +6.2 +5.9 98 +5 +5 по сезону 1028.0 1008.5
03 16.10 Ю 1 4000 м дымка 3/0
[Ci fib]
+5.0 +4.8 99 +3 +3 по сезону 1028.0 1008.5 +4.4
06 16.10 ЮЗ 1 4000 м 9/0
[Ci fib]
+8.2 +7.9 98 +7 +8 тепло 1027.8 1008.5 +4.2
09 16.10 З 2 20 км 10/0
[Ci fib]
+16.0 +7.1 55 +16 +19 тепло 1027.0 1008.2

 

Местоположение метеостанции Рязань (Рязанская область, Россия): широта 54.63 долгота 39.70 высота над уровнем моря 157 м.

В архиве по умолчанию представлена погода в Рязани за последнюю неделю. Архивные данные за месяц целиком и за предыдущие месяцы, начиная с января 2011 года, Вы можете получить, выбрав интересующий диапазон дат из раскрывающегося списка и нажав кнопку "Ввод!".


*Определитесь, кто Вы:
робот инопланетянин человек

Внимание! Время в таблицах - всемирное. Для получения местного времени необходимо прибавить поправку, которая в Рязани равна 3 ч.

Смотрите также архив погоды в соседних городах и на ближайших метеорологических станциях:

Погода в Рыбном (Рязанская область, Россия) (13 км)
Погода в Старожилово (Рязанская область, Россия) (43 км)
Погода в Зарайске (Московская область, Россия) (57 км)
Погода в Луховицах (Московская область, Россия) (58 км)
Погода в Михайлове (Рязанская область, Россия) (62 км)
Погода в Серебряных Прудах (Московская область, Россия) (66 км)
Погода в Туме (Рязанская область, Россия) (78 км)
Погода в Коломне (Московская область, Россия) (83 км)
Погода в Шилово (Рязанская область, Россия) (85 км)
Погода в Егорьевске (Московская область, Россия) (94 км)

Пояснения к столбцам:

Ветер - указаны скорость ветра в м/с - средняя за 10 мин, порывы в срок и между сроками (в фигурных скобках) и направление, откуда дует ветер: С - северный, СВ - северо-восточный, В - восточный, ЮВ - юго-восточный, Ю - южный, ЮЗ - юго-западный, З - западный, СЗ - северо-западный.
Видимость - горизонтальная дальность видимости в метрах или километрах. При видимости от 1 до 10 км при отсутствии осадков обычно наблюдается дымка, при ухудшении видимости до 1 км и менее - туман. В сухую погоду видимость может ухудшаться дымом, пылью или мглою.
Явления - указаны атмосферные явления, наблюдавшиеся в срок или в последний час перед сроком; фигурными скобками обозначены явления, наблюдавшиеся между сроками (за 1-3 часа до срока); квадратными скобками обозначены град или гололедные отложения с указанием их диаметра в мм.
Облачность - указаны через наклонную черту общая и нижняя облачность в баллах и высота нижней границы облаков в метрах; квадратными скобками обозначены формы облаков: Ci - перистые, Cs - перисто-слоистые, Cc - перисто-кучевые, Ac - высококучевые, As - высокослоистые, Sc - слоисто-кучевые, Ns - слоисто-дождевые, Cu - кучевые, Cb - кучево-дождевые. Подробнее классификацию облаков см. в Атласе облаков (PDF).
T - Температура воздуха - температура, измеренная на высоте 2 м над землей.
Td - Температура точки росы - температура, при понижении до которой содержащийся в воздухе водяной пар достигнет насыщения.
f - Относительная влажность воздуха - влажноcть воздуха, измеренная на высоте 2 м над землей.
Te - Эффективная температура - температура, которую ощущает одетый по сезону человек в тени. Характеристика душности погоды. При расчете учитывается влияние влажности воздуха и скорости ветра на теплоощущения человека.
Tes - Эффективная температура на солнце - температура, которую ощущает человек, с поправкой на солнечный нагрев. Характеристика знойности погоды. Зависит от высоты солнца над горизонтом, облачности и скорости ветра. Ночью, в пасмурную погоду, а также при ветре 12 м/с и более поправка равна нулю.
P - Атмосферное давление - приведенное к уровню моря атмосферное давление.
Po - Атмосферное давление - измеренное на уровне метеостанции атмосферное давление.
Tmin - Минимальная температура - минимум температуры воздуха на высоте 2 м над землей.
Tmax - Максимальная температура - максимум температуры воздуха на высоте 2 м над землей.
R - Количество осадков - Количество выпавших осадков за период времени, мм. При наведении курсора мыши на число - период времени, за который выпало указанное количество осадков.
R24 - Количество осадков - Количество выпавших осадков за 24 часа, мм.
S - Снежный покров - Высота снежного покрова, см. При наведении курсора мыши на число - состояние снежного покрова и степень покрытия местности в баллах.